Voltar ao catálogo

HORACIO

AtivoCiênciaSSO
NORAD 59098·PAYLOAD·🇪🇸 Spain

Lançado Mar 4, 2024 de Vandenberg Space Force Base

Loading…

Próximas Passagens (próximas 24 horas)

TLE

AtualizadoSource: Space-Track

Época: Sep 14, 2026, 14:53 UTC

1 59098U 24043A   26257.62072522  .00001198  00000-0  10430-3 0  9992
2 59098  97.8632  30.0550 0011115  80.0060 280.2416 14.98834269138069

Acompanhe HORACIO em tempo real com AllMySat

Download on the App Store